datetime,power release
1963-12-28,0.0
1963-12-29,0.0
1963-12-30,0.0
1963-12-31,0.0
1964-01-01,0.0
1964-01-02,0.0
1964-01-03,0.0
1964-01-04,0.0
1964-01-05,0.0
1964-01-06,0.0
1964-01-07,0.0
1964-01-08,0.0
1964-01-09,0.0
1964-01-10,0.0
1964-01-11,0.0
1964-01-12,0.0
1964-01-13,0.0
1964-01-14,0.0
1964-01-15,0.0
1964-01-16,0.0
1964-01-17,0.0
1964-01-18,0.0
1964-01-19,0.0
1964-01-20,0.0
1964-01-21,0.0
1964-01-22,0.0
1964-01-23,0.0
1964-01-24,0.0
1964-01-25,0.0
1964-01-26,0.0
1964-01-27,0.0
1964-01-28,0.0
1964-01-29,0.0
1964-01-30,0.0
1964-01-31,0.0
1964-02-01,0.0
1964-02-02,0.0
1964-02-03,0.0
1964-02-04,0.0
1964-02-05,0.0
1964-02-06,0.0
1964-02-07,0.0
1964-02-08,0.0
1964-02-09,0.0
1964-02-10,0.0
1964-02-11,0.0
1964-02-12,0.0
1964-02-13,0.0
1964-02-14,0.0
1964-02-15,0.0
1964-02-16,0.0
1964-02-17,0.0
1964-02-18,0.0
1964-02-19,0.0
1964-02-20,0.0
1964-02-21,0.0
1964-02-22,0.0
1964-02-23,0.0
1964-02-24,0.0
1964-02-25,0.0
1964-02-26,0.0
1964-02-27,0.0
1964-02-28,0.0
1964-02-29,0.0
1964-03-01,0.0
1964-03-02,0.0
1964-03-03,0.0
1964-03-04,0.0
1964-03-05,0.0
1964-03-06,0.0
1964-03-07,0.0
1964-03-08,0.0
1964-03-09,0.0
1964-03-10,0.0
1964-03-11,0.0
1964-03-12,0.0
1964-03-13,0.0
1964-03-14,0.0
1964-03-15,0.0
1964-03-16,0.0
1964-03-17,0.0
1964-03-18,0.0
1964-03-19,0.0
1964-03-20,0.0
1964-03-21,0.0
1964-03-22,0.0
1964-03-23,0.0
1964-03-24,0.0
1964-03-25,0.0
1964-03-26,0.0
1964-03-27,0.0
1964-03-28,0.0
1964-03-29,0.0
1964-03-30,0.0
1964-03-31,0.0
1964-04-01,0.0
1964-04-02,0.0
1964-04-03,0.0
1964-04-04,0.0
1964-04-05,0.0
1964-04-06,0.0
1964-04-07,0.0
1964-04-08,0.0
1964-04-09,0.0
1964-04-10,0.0
1964-04-11,0.0
1964-04-12,0.0
1964-04-13,0.0
1964-04-14,0.0
1964-04-15,0.0
1964-04-16,0.0
1964-04-17,0.0
1964-04-18,0.0
1964-04-19,0.0
1964-04-20,0.0
1964-04-21,0.0
1964-04-22,0.0
1964-04-23,0.0
1964-04-24,0.0
1964-04-25,0.0
1964-04-26,0.0
1964-04-27,0.0
1964-04-28,0.0
1964-04-29,0.0
1964-04-30,0.0
1964-05-01,0.0
1964-05-02,0.0
1964-05-03,0.0
1964-05-04,0.0
1964-05-05,0.0
1964-05-06,0.0
1964-05-07,0.0
1964-05-08,0.0
1964-05-09,0.0
1964-05-10,0.0
1964-05-11,0.0
1964-05-12,0.0
1964-05-13,0.0
1964-05-14,0.0
1964-05-15,0.0
1964-05-16,0.0
1964-05-17,0.0
1964-05-18,0.0
1964-05-19,0.0
1964-05-20,0.0
1964-05-21,0.0
1964-05-22,0.0
1964-05-23,0.0
1964-05-24,0.0
1964-05-25,0.0
1964-05-26,0.0
1964-05-27,0.0
1964-05-28,0.0
1964-05-29,0.0
1964-05-30,0.0
1964-05-31,0.0
1964-06-01,0.0
1964-06-02,0.0
1964-06-03,0.0
1964-06-04,0.0
1964-06-05,0.0
1964-06-06,0.0
1964-06-07,0.0
1964-06-08,0.0
1964-06-09,0.0
1964-06-10,0.0
1964-06-11,0.0
1964-06-12,0.0
1964-06-13,0.0
1964-06-14,0.0
1964-06-15,0.0
1964-06-16,0.0
1964-06-17,0.0
1964-06-18,0.0
1964-06-19,0.0
1964-06-20,0.0
1964-06-21,0.0
1964-06-22,0.0
1964-06-23,0.0
1964-06-24,0.0
1964-06-25,0.0
1964-06-26,0.0
1964-06-27,0.0
1964-06-28,0.0
1964-06-29,0.0
1964-06-30,0.0
1964-07-01,0.0
1964-07-02,0.0
1964-07-03,0.0
1964-07-04,0.0
1964-07-05,0.0
1964-07-06,0.0
1964-07-07,0.0
1964-07-08,0.0
1964-07-09,0.0
1964-07-10,0.0
1964-07-11,0.0
1964-07-12,0.0
1964-07-13,0.0
1964-07-14,0.0
1964-07-15,0.0
1964-07-16,0.0
1964-07-17,0.0
1964-07-18,0.0
1964-07-19,0.0
1964-07-20,0.0
1964-07-21,0.0
1964-07-22,0.0
1964-07-23,0.0
1964-07-24,0.0
1964-07-25,0.0
1964-07-26,0.0
1964-07-27,0.0
1964-07-28,0.0
1964-07-29,0.0
1964-07-30,0.0
1964-07-31,0.0
1964-08-01,0.0
1964-08-02,0.0
1964-08-03,0.0
1964-08-04,0.0
1964-08-05,0.0
1964-08-06,0.0
1964-08-07,0.0
1964-08-08,0.0
1964-08-09,0.0
1964-08-10,0.0
1964-08-11,0.0
1964-08-12,0.0
1964-08-13,0.0
1964-08-14,0.0
1964-08-15,0.0
1964-08-16,0.0
1964-08-17,0.0
1964-08-18,0.0
1964-08-19,0.0
1964-08-20,0.0
1964-08-21,0.0
1964-08-22,0.0
1964-08-23,0.0
1964-08-24,0.0
1964-08-25,0.0
1964-08-26,0.0
1964-08-27,0.0
1964-08-28,0.0
1964-08-29,0.0
1964-08-30,0.0
1964-08-31,0.0
1964-09-01,0.0
1964-09-02,0.0
1964-09-03,0.0
1964-09-04,2700.0
1964-09-05,2700.0
1964-09-06,2700.0
1964-09-07,2720.0
1964-09-08,2190.0
1964-09-09,2340.0
1964-09-10,3040.0
1964-09-11,2800.0
1964-09-12,2820.0
1964-09-13,2340.0
1964-09-14,2480.0
1964-09-15,2450.0
1964-09-16,2280.0
1964-09-17,1020.0
1964-09-18,2520.0
1964-09-19,2460.0
1964-09-20,2040.0
1964-09-21,1950.0
1964-09-22,2460.0
1964-09-23,2450.0
1964-09-24,2110.0
1964-09-25,1985.0
1964-09-26,3010.0
1964-09-27,3050.0
1964-09-28,3050.0
1964-09-29,3590.0
1964-09-30,5850.0
1964-10-01,5700.0
1964-10-02,5120.0
1964-10-03,5670.0
1964-10-04,5670.0
1964-10-05,5610.0
1964-10-06,5580.0
1964-10-07,4540.0
1964-10-08,3870.0
1964-10-09,3860.0
1964-10-10,3860.0
1964-10-11,7700.0
1964-10-12,4850.0
1964-10-13,4100.0
1964-10-14,3990.0
1964-10-15,4000.0
1964-10-16,3990.0
1964-10-17,3260.0
1964-10-18,3510.0
1964-10-19,3700.0
1964-10-20,3450.0
1964-10-21,3510.0
1964-10-22,3810.0
1964-10-23,3900.0
1964-10-24,3770.0
1964-10-25,3888.0
1964-10-26,3880.0
1964-10-27,4220.0
1964-10-28,4120.0
1964-10-29,3450.0
1964-10-30,3700.0
1964-10-31,3950.0
1964-11-01,3900.0
1964-11-02,4080.0
1964-11-03,5400.0
1964-11-04,6220.0
1964-11-05,5400.0
1964-11-06,3560.0
1964-11-07,6580.0
1964-11-08,6380.0
1964-11-09,6670.0
1964-11-10,6710.0
1964-11-11,6710.0
1964-11-12,6610.0
1964-11-13,6510.0
1964-11-14,6540.0
1964-11-15,6510.0
1964-11-16,6610.0
1964-11-17,6580.0
1964-11-18,6610.0
1964-11-19,6580.0
1964-11-20,6580.0
1964-11-21,6610.0
1964-11-22,6610.0
1964-11-23,6190.0
1964-11-24,6190.0
1964-11-25,6290.0
1964-11-26,6320.0
1964-11-27,6260.0
1964-11-28,5910.0
1964-11-29,5790.0
1964-11-30,5850.0
1964-12-01,5790.0
1964-12-02,5910.0
1964-12-03,6000.0
1964-12-04,6000.0
1964-12-05,6000.0
1964-12-06,6000.0
1964-12-07,6000.0
1964-12-08,6030.0
1964-12-09,6060.0
1964-12-10,6060.0
1964-12-11,4170.0
1964-12-12,9420.0
1964-12-13,4550.0
1964-12-14,6190.0
1964-12-15,5940.0
1964-12-16,6320.0
1964-12-17,6090.0
1964-12-18,6130.0
1964-12-19,5910.0
1964-12-20,5880.0
1964-12-21,6130.0
1964-12-22,5910.0
1964-12-23,5880.0
1964-12-24,4680.0
1964-12-25,2500.0
1964-12-26,3450.0
1964-12-27,3660.0
1964-12-28,9400.0
1964-12-29,13150.0
1964-12-30,12410.0
1964-12-31,12800.0
1965-01-01,8890.0
1965-01-02,8520.0
1965-01-03,8600.0
1965-01-04,7390.0
1965-01-05,7770.0
1965-01-06,7910.0
1965-01-07,8820.0
1965-01-08,9620.0
1965-01-09,9700.0
1965-01-10,9620.0
1965-01-11,9580.0
1965-01-12,9230.0
1965-01-13,9160.0
1965-01-14,9780.0
1965-01-15,9900.0
1965-01-16,9390.0
1965-01-17,9620.0
1965-01-18,9620.0
1965-01-19,10100.0
1965-01-20,10340.0
1965-01-21,7070.0
1965-01-22,5650.0
1965-01-23,10060.0
1965-01-24,10100.0
1965-01-25,10060.0
1965-01-26,10020.0
1965-01-27,10020.0
1965-01-28,9420.0
1965-01-29,9780.0
1965-01-30,9620.0
1965-01-31,9780.0
1965-02-01,9680.0
1965-02-02,7930.0
1965-02-03,8270.0
1965-02-04,8020.0
1965-02-05,9780.0
1965-02-06,9740.0
1965-02-07,9540.0
1965-02-08,8340.0
1965-02-09,9270.0
1965-02-10,9500.0
1965-02-11,7900.0
1965-02-12,8800.0
1965-02-13,8800.0
1965-02-14,8860.0
1965-02-15,9490.0
1965-02-16,9820.0
1965-02-17,9350.0
1965-02-18,7320.0
1965-02-19,5790.0
1965-02-20,7910.0
1965-02-21,8630.0
1965-02-22,8520.0
1965-02-23,7180.0
1965-02-24,6350.0
1965-02-25,7880.0
1965-02-26,6247.0
1965-02-27,5320.0
1965-02-28,5940.0
1965-03-01,8520.0
1965-03-02,6060.0
1965-03-03,7200.0
1965-03-04,9400.0
1965-03-05,6840.0
1965-03-06,6290.0
1965-03-07,6160.0
1965-03-08,6640.0
1965-03-09,6380.0
1965-03-10,6450.0
1965-03-11,6090.0
1965-03-12,6810.0
1965-03-13,6710.0
1965-03-14,7350.0
1965-03-15,7560.0
1965-03-16,5900.0
1965-03-17,7900.0
1965-03-18,11300.0
1965-03-19,7250.0
1965-03-20,6640.0
1965-03-21,6190.0
1965-03-22,7130.0
1965-03-23,7840.0
1965-03-24,7320.0
1965-03-25,7770.0
1965-03-26,7980.0
1965-03-27,6910.0
1965-03-28,6640.0
1965-03-29,7950.0
1965-03-30,7840.0
1965-03-31,7445.0
1965-04-01,7715.0
1965-04-02,7490.0
1965-04-03,7320.0
1965-04-04,6920.0
1965-04-05,8980.0
1965-04-06,10160.0
1965-04-07,10600.0
1965-04-08,8630.0
1965-04-09,8600.0
1965-04-10,4600.0
1965-04-11,10600.0
1965-04-12,10610.0
1965-04-13,6530.0
1965-04-14,6570.0
1965-04-15,5780.0
1965-04-16,8470.0
1965-04-17,7150.0
1965-04-18,6750.0
1965-04-19,6450.0
1965-04-20,7840.0
1965-04-21,5565.0
1965-04-22,2315.0
1965-04-23,8810.0
1965-04-24,8385.0
1965-04-25,8190.0
1965-04-26,8615.0
1965-04-27,5010.0
1965-04-28,12645.0
1965-04-29,11145.0
1965-04-30,10000.0
1965-05-01,6100.0
1965-05-02,5700.0
1965-05-03,4665.0
1965-05-04,10765.0
1965-05-05,9970.0
1965-05-06,7100.0
1965-05-07,8690.0
1965-05-08,10915.0
1965-05-09,8325.0
1965-05-10,9830.0
1965-05-11,7700.0
1965-05-12,10720.0
1965-05-13,7260.0
1965-05-14,8845.0
1965-05-15,10270.0
1965-05-16,8490.0
1965-05-17,7745.0
1965-05-18,9530.0
1965-05-19,11155.0
1965-05-20,10180.0
1965-05-21,9440.0
1965-05-22,9640.0
1965-05-23,8380.0
1965-05-24,10465.0
1965-05-25,10465.0
1965-05-26,9865.0
1965-05-27,10465.0
1965-05-28,11620.0
1965-05-29,12120.0
1965-05-30,11755.0
1965-05-31,9620.0
1965-06-01,13830.0
1965-06-02,10370.0
1965-06-03,9060.0
1965-06-04,10880.0
1965-06-05,9335.0
1965-06-06,11460.0
1965-06-07,13960.0
1965-06-08,12180.0
1965-06-09,12400.0
1965-06-10,10800.0
1965-06-11,15130.0
1965-06-12,12460.0
1965-06-13,12650.0
1965-06-14,13020.0
1965-06-15,17720.0
1965-06-16,11465.0
1965-06-17,11500.0
1965-06-18,10230.0
1965-06-19,12325.0
1965-06-20,13360.0
1965-06-21,13640.0
1965-06-22,13640.0
1965-06-23,13640.0
1965-06-24,14080.0
1965-06-25,15105.0
1965-06-26,13440.0
1965-06-27,11110.0
1965-06-28,12500.0
1965-06-29,12460.0
1965-06-30,12180.0
1965-07-01,12380.0
1965-07-02,12480.0
1965-07-03,12880.0
1965-07-04,12480.0
1965-07-05,12480.0
1965-07-06,12780.0
1965-07-07,11005.0
1965-07-08,11600.0
1965-07-09,6060.0
1965-07-10,7840.0
1965-07-11,8380.0
1965-07-12,9100.0
1965-07-13,9320.0
1965-07-14,10700.0
1965-07-15,11000.0
1965-07-16,11300.0
1965-07-17,9920.0
1965-07-18,10100.0
1965-07-19,11100.0
1965-07-20,10900.0
1965-07-21,9170.0
1965-07-22,9540.0
1965-07-23,10100.0
1965-07-24,10600.0
1965-07-25,12900.0
1965-07-26,13500.0
1965-07-27,13000.0
1965-07-28,12600.0
1965-07-29,12900.0
1965-07-30,12600.0
1965-07-31,14200.0
1965-08-01,13300.0
1965-08-02,11400.0
1965-08-03,10600.0
1965-08-04,11100.0
1965-08-05,12000.0
1965-08-06,14000.0
1965-08-07,10800.0
1965-08-08,9760.0
1965-08-09,10600.0
1965-08-10,11200.0
1965-08-11,12700.0
1965-08-12,11700.0
1965-08-13,8200.0
1965-08-14,8000.0
1965-08-15,12200.0
1965-08-16,11600.0
1965-08-17,11480.0
1965-08-18,12100.0
1965-08-19,12700.0
1965-08-20,12200.0
1965-08-21,13800.0
1965-08-22,13100.0
1965-08-23,13600.0
1965-08-24,13500.0
1965-08-25,14100.0
1965-08-26,14500.0
1965-08-27,14500.0
1965-08-28,14600.0
1965-08-29,13800.0
1965-08-30,14985.0
1965-08-31,11800.0
1965-09-01,14200.0
1965-09-02,14400.0
1965-09-03,14450.0
1965-09-04,14480.0
1965-09-05,13480.0
1965-09-06,13540.0
1965-09-07,14600.0
1965-09-08,14600.0
1965-09-09,14500.0
1965-09-10,14700.0
1965-09-11,14500.0
1965-09-12,13700.0
1965-09-13,14700.0
1965-09-14,11900.0
1965-09-15,11400.0
1965-09-16,10800.0
1965-09-17,11900.0
1965-09-18,12100.0
1965-09-19,12200.0
1965-09-20,11800.0
1965-09-21,11500.0
1965-09-22,11200.0
1965-09-23,10500.0
1965-09-24,9460.0
1965-09-25,10100.0
1965-09-26,9650.0
1965-09-27,10200.0
1965-09-28,10200.0
1965-09-29,10700.0
1965-09-30,10600.0
1965-10-01,11283.0
1965-10-02,5663.0
1965-10-03,5816.0
1965-10-04,7610.0
1965-10-05,12609.0
1965-10-06,12194.0
1965-10-07,12776.0
1965-10-08,10710.0
1965-10-09,10101.0
1965-10-10,9505.0
1965-10-11,8492.0
1965-10-12,10069.0
1965-10-13,12005.0
1965-10-14,11242.0
1965-10-15,11726.0
1965-10-16,10778.0
1965-10-17,15786.0
1965-10-18,17319.0
1965-10-19,16783.0
1965-10-20,16270.0
1965-10-21,14346.0
1965-10-22,12830.0
1965-10-23,11668.0
1965-10-24,11559.0
1965-10-25,12258.0
1965-10-26,11465.0
1965-10-27,12844.0
1965-10-28,11908.0
1965-10-29,12055.0
1965-10-30,11201.0
1965-10-31,10285.0
1965-11-01,10913.0
1965-11-02,11367.0
1965-11-03,11860.0
1965-11-04,12586.0
1965-11-05,12059.0
1965-11-06,11171.0
1965-11-07,10115.0
1965-11-08,11981.0
1965-11-09,12714.0
1965-11-10,12270.0
1965-11-11,11825.0
1965-11-12,12263.0
1965-11-13,9117.0
1965-11-14,8188.0
1965-11-15,9832.0
1965-11-16,11661.0
1965-11-17,10253.0
1965-11-18,9579.0
1965-11-19,10114.0
1965-11-20,9907.0
1965-11-21,9334.0
1965-11-22,10706.0
1965-11-23,12152.0
1965-11-24,11963.0
1965-11-25,9406.0
1965-11-26,11607.0
1965-11-27,11315.0
1965-11-28,10065.0
1965-11-29,10772.0
1965-11-30,11042.0
1965-12-01,10765.0
1965-12-02,11917.0
1965-12-03,9618.0
1965-12-04,8596.0
1965-12-05,7401.0
1965-12-06,9404.0
1965-12-07,10072.0
1965-12-08,10391.0
1965-12-09,10621.0
1965-12-10,9927.0
1965-12-11,9645.0
1965-12-12,14702.0
1965-12-13,9756.0
1965-12-14,11308.0
1965-12-15,11836.0
1965-12-16,10677.0
1965-12-17,11533.0
1965-12-18,9154.0
1965-12-19,8355.0
1965-12-20,10063.0
1965-12-21,13376.0
1965-12-22,9665.0
1965-12-23,10299.0
1965-12-24,8425.0
1965-12-25,3980.0
1965-12-26,4667.0
1965-12-27,7881.0
1965-12-28,10563.0
1965-12-29,9708.0
1965-12-30,10323.0
1965-12-31,6430.0
1966-01-01,3610.0
1966-01-02,5257.0
1966-01-03,7131.0
1966-01-04,5519.0
1966-01-05,5376.0
1966-01-06,7009.0
1966-01-07,6906.0
1966-01-08,6520.0
1966-01-09,3845.0
1966-01-10,7632.0
1966-01-11,8046.0
1966-01-12,8316.0
1966-01-13,8742.0
1966-01-14,9102.0
1966-01-15,7326.0
1966-01-16,5265.0
1966-01-17,7536.0
1966-01-18,8869.0
1966-01-19,11790.0
1966-01-20,12975.0
1966-01-21,10517.0
1966-01-22,8426.0
1966-01-23,5343.0
1966-01-24,10480.0
1966-01-25,12452.0
1966-01-26,12555.0
1966-01-27,12384.0
1966-01-28,12081.0
1966-01-29,13193.0
1966-01-30,9099.0
1966-01-31,13949.0
1966-02-01,12715.0
1966-02-02,12557.0
1966-02-03,11998.0
1966-02-04,12488.0
1966-02-05,12093.0
1966-02-06,7664.0
1966-02-07,10974.0
1966-02-08,11819.0
1966-02-09,12349.0
1966-02-10,13521.0
1966-02-11,14840.0
1966-02-12,14136.0
1966-02-13,10316.0
1966-02-14,12167.0
1966-02-15,12373.0
1966-02-16,12993.0
1966-02-17,10389.0
1966-02-18,8374.0
1966-02-19,4963.0
1966-02-20,2753.0
1966-02-21,6502.0
1966-02-22,5622.0
1966-02-23,6383.0
1966-02-24,6903.0
1966-02-25,8010.0
1966-02-26,7435.0
1966-02-27,5095.0
1966-02-28,10126.0
1966-03-01,10613.0
1966-03-02,11209.0
1966-03-03,12888.0
1966-03-04,12973.0
1966-03-05,11418.0
1966-03-06,6073.0
1966-03-07,11001.0
1966-03-08,12047.0
1966-03-09,11978.0
1966-03-10,12372.0
1966-03-11,13401.0
1966-03-12,11093.0
1966-03-13,7758.0
1966-03-14,12888.0
1966-03-15,13481.0
1966-03-16,12643.0
1966-03-17,13852.0
1966-03-18,14281.0
1966-03-19,12581.0
1966-03-20,8855.0
1966-03-21,11414.0
1966-03-22,11226.0
1966-03-23,9909.0
1966-03-24,10830.0
1966-03-25,9919.0
1966-03-26,8109.0
1966-03-27,8369.0
1966-03-28,11843.0
1966-03-29,12832.0
1966-03-30,10803.0
1966-03-31,10241.0
1966-04-01,11542.0
1966-04-02,10132.0
1966-04-03,13393.0
1966-04-04,13161.0
1966-04-05,12010.0
1966-04-06,12830.0
1966-04-07,12728.0
1966-04-08,12939.0
1966-04-09,13426.0
1966-04-10,13511.0
1966-04-11,14292.0
1966-04-12,14299.0
1966-04-13,15020.0
1966-04-14,15483.0
1966-04-15,11058.0
1966-04-16,13776.0
1966-04-17,11647.0
1966-04-18,14894.0
1966-04-19,14993.0
1966-04-20,15158.0
1966-04-21,15172.0
1966-04-22,13730.0
1966-04-23,12486.0
1966-04-24,11911.0
1966-04-25,14815.0
1966-04-26,15106.0
1966-04-27,16865.0
1966-04-28,16819.0
1966-04-29,17553.0
1966-04-30,18115.0
1966-05-01,17209.0
1966-05-02,17534.0
1966-05-03,17725.0
1966-05-04,17522.0
1966-05-05,17025.0
1966-05-06,15768.0
1966-05-07,15781.0
1966-05-08,14801.0
1966-05-09,15840.0
1966-05-10,15444.0
1966-05-11,14108.0
1966-05-12,15119.0
1966-05-13,13803.0
1966-05-14,14376.0
1966-05-15,13743.0
1966-05-16,14451.0
1966-05-17,14636.0
1966-05-18,17321.0
1966-05-19,16666.0
1966-05-20,17315.0
1966-05-21,17745.0
1966-05-22,16356.0
1966-05-23,15057.0
1966-05-24,14228.0
1966-05-25,16345.0
1966-05-26,18221.0
1966-05-27,17718.0
1966-05-28,16721.0
1966-05-29,15965.0
1966-05-30,15661.0
1966-05-31,16362.0
1966-06-01,15893.0
1966-06-02,16675.0
1966-06-03,16223.0
1966-06-04,16650.0
1966-06-05,16570.0
1966-06-06,16264.0
1966-06-07,11768.0
1966-06-08,8927.0
1966-06-09,13671.0
1966-06-10,14261.0
1966-06-11,13850.0
1966-06-12,13815.0
1966-06-13,13405.0
1966-06-14,13202.0
1966-06-15,12171.0
1966-06-16,13145.0
1966-06-17,15528.0
1966-06-18,13248.0
1966-06-19,10414.0
1966-06-20,11988.0
1966-06-21,9771.0
1966-06-22,10322.0
1966-06-23,10675.0
1966-06-24,9743.0
1966-06-25,10501.0
1966-06-26,7185.0
1966-06-27,10822.0
1966-06-28,11524.0
1966-06-29,12299.0
1966-06-30,11338.0
1966-07-01,9688.0
1966-07-02,9362.0
1966-07-03,8064.0
1966-07-04,12070.0
1966-07-05,12141.0
1966-07-06,12328.0
1966-07-07,11802.0
1966-07-08,11736.0
1966-07-09,11750.0
1966-07-10,11653.0
1966-07-11,11653.0
1966-07-12,11748.0
1966-07-13,12775.0
1966-07-14,12011.0
1966-07-15,10994.0
1966-07-16,9941.0
1966-07-17,12864.0
1966-07-18,10517.0
1966-07-19,10787.0
1966-07-20,10077.0
1966-07-21,10827.0
1966-07-22,12074.0
1966-07-23,11754.0
1966-07-24,10163.0
1966-07-25,10173.0
1966-07-26,10704.0
1966-07-27,10539.0
1966-07-28,10794.0
1966-07-29,10672.0
1966-07-30,10259.0
1966-07-31,9923.0
1966-08-01,11512.0
1966-08-02,11437.0
1966-08-03,11282.0
1966-08-04,11981.0
1966-08-05,11560.0
1966-08-06,12055.0
1966-08-07,9212.0
1966-08-08,11424.0
1966-08-09,11609.0
1966-08-10,11355.0
1966-08-11,11250.0
1966-08-12,10986.0
1966-08-13,10613.0
1966-08-14,9345.0
1966-08-15,11376.0
1966-08-16,10174.0
1966-08-17,12814.0
1966-08-18,11220.0
1966-08-19,11024.0
1966-08-20,10459.0
1966-08-21,8863.0
1966-08-22,10900.0
1966-08-23,10572.0
1966-08-24,10444.0
1966-08-25,10427.0
1966-08-26,11098.0
1966-08-27,10261.0
1966-08-28,9625.0
1966-08-29,10443.0
1966-08-30,10679.0
1966-08-31,11032.0
1966-09-01,9756.0
1966-09-02,8891.0
1966-09-03,8278.0
1966-09-04,7139.0
1966-09-05,7450.0
1966-09-06,9185.0
1966-09-07,9030.0
1966-09-08,9282.0
1966-09-09,11333.0
1966-09-10,11524.0
1966-09-11,10168.0
1966-09-12,10769.0
1966-09-13,7107.0
1966-09-14,7583.0
1966-09-15,8892.0
1966-09-16,10486.0
1966-09-17,9345.0
1966-09-18,9189.0
1966-09-19,12815.0
1966-09-20,12533.0
1966-09-21,13023.0
1966-09-22,13094.0
1966-09-23,13199.0
1966-09-24,12944.0
1966-09-25,9636.0
1966-09-26,12089.0
1966-09-27,11703.0
1966-09-28,10449.0
1966-09-29,11294.0
1966-09-30,12000.0
1966-10-01,11642.0
1966-10-02,7523.0
1966-10-03,11018.0
1966-10-04,10857.0
1966-10-05,9147.0
1966-10-06,9283.0
1966-10-07,9045.0
1966-10-08,9527.0
1966-10-09,6322.0
1966-10-10,10257.0
1966-10-11,9082.0
1966-10-12,8526.0
1966-10-13,7876.0
1966-10-14,7837.0
1966-10-15,5842.0
1966-10-16,2285.0
1966-10-17,5509.0
1966-10-18,6601.0
1966-10-19,7325.0
1966-10-20,10033.0
1966-10-21,9889.0
1966-10-22,8080.0
1966-10-23,4389.0
1966-10-24,9483.0
1966-10-25,10410.0
1966-10-26,9915.0
1966-10-27,10229.0
1966-10-28,10854.0
1966-10-29,10745.0
1966-10-30,7469.0
1966-10-31,11248.0
1966-11-01,11510.0
1966-11-02,9408.0
1966-11-03,10301.0
1966-11-04,8979.0
1966-11-05,8198.0
1966-11-06,4636.0
1966-11-07,9441.0
1966-11-08,10163.0
1966-11-09,11889.0
1966-11-10,11457.0
1966-11-11,10861.0
1966-11-12,10710.0
1966-11-13,7096.0
1966-11-14,9658.0
1966-11-15,9247.0
1966-11-16,10134.0
1966-11-17,10899.0
1966-11-18,10896.0
1966-11-19,10820.0
1966-11-20,6744.0
1966-11-21,10274.0
1966-11-22,9790.0
1966-11-23,9816.0
1966-11-24,6905.0
1966-11-25,10985.0
1966-11-26,12080.0
1966-11-27,7648.0
1966-11-28,8924.0
1966-11-29,7643.0
1966-11-30,7372.0
1966-12-01,7447.0
1966-12-02,7150.0
1966-12-03,9354.0
1966-12-04,4566.0
1966-12-05,9899.0
1966-12-06,10073.0
1966-12-07,8657.0
1966-12-08,7211.0
1966-12-09,7878.0
1966-12-10,8021.0
1966-12-11,5564.0
1966-12-12,8293.0
1966-12-13,8293.0
1966-12-14,7142.0
1966-12-15,8157.0
1966-12-16,8277.0
1966-12-17,8725.0
1966-12-18,5125.0
1966-12-19,9325.0
1966-12-20,10383.0
1966-12-21,10095.0
1966-12-22,9210.0
1966-12-23,9807.0
1966-12-24,8409.0
1966-12-25,3563.0
1966-12-26,5061.0
1966-12-27,9144.0
1966-12-28,9216.0
1966-12-29,12045.0
1966-12-30,11504.0
1966-12-31,10397.0
1967-01-01,7012.0
1967-01-02,7318.0
1967-01-03,12814.0
1967-01-04,12177.0
1967-01-05,10888.0
1967-01-06,10069.0
1967-01-07,8620.0
1967-01-08,5732.0
1967-01-09,9623.0
1967-01-10,9355.0
1967-01-11,9023.0
1967-01-12,10241.0
1967-01-13,9757.0
1967-01-14,10728.0
1967-01-15,7496.0
1967-01-16,11066.0
1967-01-17,10031.0
1967-01-18,9613.0
1967-01-19,10230.0
1967-01-20,10317.0
1967-01-21,9428.0
1967-01-22,5422.0
1967-01-23,8087.0
1967-01-24,9140.0
1967-01-25,9647.0
1967-01-26,9132.0
1967-01-27,9445.0
1967-01-28,8277.0
1967-01-29,5606.0
1967-01-30,8806.0
1967-01-31,10099.0
1967-02-01,10247.0
1967-02-02,10198.0
1967-02-03,11517.0
1967-02-04,10721.0
1967-02-05,9001.0
1967-02-06,10262.0
1967-02-07,11053.0
1967-02-08,10617.0
1967-02-09,10755.0
1967-02-10,10751.0
1967-02-11,10612.0
1967-02-12,8780.0
1967-02-13,8474.0
1967-02-14,9548.0
1967-02-15,10140.0
1967-02-16,9668.0
1967-02-17,9884.0
1967-02-18,7596.0
1967-02-19,8584.0
1967-02-20,8754.0
1967-02-21,8095.0
1967-02-22,9732.0
1967-02-23,7910.0
1967-02-24,7757.0
1967-02-25,6948.0
1967-02-26,5853.0
1967-02-27,7167.0
1967-02-28,5189.0
1967-03-01,9696.0
1967-03-02,9606.0
1967-03-03,10449.0
1967-03-04,9889.0
1967-03-05,9715.0
1967-03-06,12557.0
1967-03-07,12411.0
1967-03-08,11910.0
1967-03-09,13666.0
1967-03-10,12154.0
1967-03-11,11208.0
1967-03-12,9482.0
1967-03-13,12865.0
1967-03-14,12400.0
1967-03-15,12795.0
1967-03-16,10560.0
1967-03-17,10921.0
1967-03-18,9428.0
1967-03-19,10685.0
1967-03-20,11251.0
1967-03-21,10868.0
1967-03-22,9081.0
1967-03-23,9129.0
1967-03-24,8746.0
1967-03-25,8194.0
1967-03-26,7448.0
1967-03-27,8789.0
1967-03-28,8914.0
1967-03-29,10853.0
1967-03-30,11079.0
1967-03-31,8863.0
1967-04-01,11808.0
1967-04-02,13378.0
1967-04-03,16074.0
1967-04-04,16724.0
1967-04-05,17832.0
1967-04-06,16871.0
1967-04-07,16154.0
1967-04-08,13514.0
1967-04-09,10536.0
1967-04-10,13252.0
1967-04-11,15146.0
1967-04-12,13525.0
1967-04-13,15241.0
1967-04-14,15152.0
1967-04-15,12865.0
1967-04-16,12072.0
1967-04-17,13542.0
1967-04-18,18049.0
1967-04-19,20214.0
1967-04-20,18505.0
1967-04-21,16460.0
1967-04-22,12705.0
1967-04-23,11597.0
1967-04-24,13762.0
1967-04-25,14526.0
1967-04-26,15823.0
1967-04-27,15313.0
1967-04-28,15354.0
1967-04-29,11495.0
1967-04-30,10008.0
1967-05-01,15766.0
1967-05-02,15045.0
1967-05-03,13578.0
1967-05-04,12113.0
1967-05-05,13584.0
1967-05-06,11676.0
1967-05-07,9884.0
1967-05-08,14027.0
1967-05-09,15509.0
1967-05-10,15474.0
1967-05-11,16697.0
1967-05-12,15758.0
1967-05-13,14688.0
1967-05-14,13528.0
1967-05-15,18042.0
1967-05-16,18059.0
1967-05-17,18358.0
1967-05-18,18475.0
1967-05-19,18792.0
1967-05-20,18165.0
1967-05-21,15157.0
1967-05-22,16382.0
1967-05-23,15856.0
1967-05-24,13293.0
1967-05-25,13983.0
1967-05-26,13576.0
1967-05-27,12211.0
1967-05-28,10757.0
1967-05-29,11635.0
1967-05-30,9641.0
1967-05-31,12089.0
1967-06-01,10745.0
1967-06-02,11546.0
1967-06-03,10464.0
1967-06-04,12152.0
1967-06-05,13113.0
1967-06-06,14835.0
1967-06-07,14260.0
1967-06-08,15312.0
1967-06-09,14354.0
1967-06-10,11684.0
1967-06-11,11335.0
1967-06-12,13550.0
1967-06-13,13484.0
1967-06-14,12075.0
1967-06-15,12592.0
1967-06-16,12260.0
1967-06-17,12692.0
1967-06-18,8737.0
1967-06-19,11168.0
1967-06-20,10712.0
1967-06-21,10599.0
1967-06-22,11731.0
1967-06-23,12374.0
1967-06-24,13973.0
1967-06-25,10602.0
1967-06-26,12515.0
1967-06-27,13023.0
1967-06-28,12374.0
1967-06-29,12949.0
1967-06-30,14138.0
1967-07-01,11800.0
1967-07-02,11890.0
1967-07-03,11171.0
1967-07-04,10628.0
1967-07-05,12300.0
1967-07-06,13787.0
1967-07-07,11513.0
1967-07-08,10391.0
1967-07-09,9406.0
1967-07-10,10975.0
1967-07-11,11626.0
1967-07-12,10104.0
1967-07-13,10197.0
1967-07-14,10953.0
1967-07-15,9060.0
1967-07-16,9160.0
1967-07-17,9940.0
1967-07-18,10833.0
1967-07-19,10617.0
1967-07-20,9701.0
1967-07-21,9972.0
1967-07-22,8865.0
1967-07-23,8080.0
1967-07-24,8451.0
1967-07-25,8597.0
1967-07-26,10755.0
1967-07-27,6916.0
1967-07-28,10597.0
1967-07-29,9255.0
1967-07-30,9707.0
1967-07-31,9707.0
1967-08-01,9950.0
1967-08-02,11229.0
1967-08-03,10698.0
1967-08-04,11363.0
1967-08-05,6769.0
1967-08-06,7855.0
1967-08-07,9534.0
1967-08-08,11528.0
1967-08-09,11121.0
1967-08-10,10886.0
1967-08-11,9991.0
1967-08-12,9419.0
1967-08-13,8737.0
1967-08-14,9928.0
1967-08-15,10028.0
1967-08-16,10620.0
1967-08-17,9021.0
1967-08-18,10336.0
1967-08-19,9053.0
1967-08-20,8433.0
1967-08-21,9831.0
1967-08-22,10503.0
1967-08-23,10197.0
1967-08-24,9758.0
1967-08-25,10704.0
1967-08-26,9660.0
1967-08-27,8731.0
1967-08-28,10913.0